Select another period ( hide this area )

Units Period Custom range Directly to
Metric English Both
Daily Weekly Monthly Yearly
use both date-selectors for a custom range
previous Day
With this date

WeatherUnderground graphs for this period ( click here ) Loading the graph can take up to a minute!


Daily Summary for Thursday Apr 2 2020
Time Temp. ( °C ) Dew pt. ( °C ) Wind ( km/h ) From Gust ( km/h ) Pressure ( hPa ) Humid.( % ) Rainrate ( cm )
High4,3 0,5 1,0 WSW ( 1/1 ) 3,0 1019,6 90 -
Average2,4 0,0 0,0 Kalm #72/73 0,5 1018,8 84 -
Low0,4 -1,1 -   0,0 1017,3 76 -
Daily Tabular details for Thursday Apr 2 2020
Time Temp. ( °C ) Dew pt. ( °C ) Wind ( km/h ) From Gust ( km/h ) Pressure ( hPa ) Humid.( % ) Rainrate ( cm )
00:04 4,3 0,4   Kalm 2,0 1019,6 76 -
00:09 4,2 0,5   Kalm 3,0 1019,6 77 -
00:14 4,2 0,5   Kalm 2,0 1019,6 77 -
00:19 4,1 0,4   Kalm 2,0 1019,6 77 -
00:24 4,0 0,5   Kalm 2,0 1019,6 78 -
00:29 3,9 0,4   Kalm   1019,6 78 -
00:34 3,9 0,4   Kalm   1019,6 78 -
00:39 3,8 0,5   Kalm   1019,6 79 -
00:44 3,7 0,4   Kalm   1019,6 79 -
00:49 3,6 0,3   Kalm   1019,6 79 -
00:54 3,6 0,5   Kalm   1019,6 80 -
00:59 3,6 0,5   Kalm   1019,3 80 -
01:04 3,6 0,5   Kalm   1019,6 80 -
01:09 3,4 0,3   Kalm   1019,6 80 -
01:14 3,3 0,2   Kalm   1019,3 80 -
01:19 3,3 0,4   Kalm 2,0 1019,3 81 -
01:24 3,3 0,4   Kalm   1019,3 81 -
01:29 3,2 0,3   Kalm   1019,3 81 -
01:34 3,2 0,4   Kalm   1019,3 82 -
01:39 3,2 0,4   Kalm   1019,3 82 -
01:44 3,2 0,4   Kalm 2,0 1019,3 82 -
01:49 3,1 0,3   Kalm   1019,3 82 -
01:54 3,0 0,4   Kalm 2,0 1019,0 83 -
01:59 2,9 0,3   Kalm 2,0 1019,3 83 -
02:04 2,9 0,3   Kalm   1019,0 83 -
02:09 2,8 0,2   Kalm   1019,3 83 -
02:14 2,8 0,4   Kalm   1019,0 84 -
02:19 2,8 0,4   Kalm   1019,0 84 -
02:24 2,7 0,3   Kalm 2,0 1019,0 84 -
02:29 2,7 0,3 1,0 WSW 2,0 1019,0 84 -
02:34 2,7 0,3   Kalm 2,0 1019,0 84 -
02:40 2,7 0,3   Kalm 2,0 1019,0 84 -
02:45 2,7 0,3   Kalm   1019,0 84 -
02:50 2,6 0,2   Kalm   1019,0 84 -
02:55 2,6 0,3   Kalm   1019,0 85 -
03:00 2,6 0,3   Kalm   1019,0 85 -
03:05 2,5 0,2   Kalm   1019,0 85 -
03:10 2,4 0,1   Kalm   1019,0 85 -
03:15 2,3 0,0   Kalm   1019,0 85 -
03:20 2,2 0,1   Kalm   1019,0 86 -
03:25 2,2 0,1   Kalm   1019,0 86 -
03:30 2,2 0,1   Kalm   1019,0 86 -
03:35 2,2 0,1   Kalm   1019,0 86 -
03:40 2,1 0,0   Kalm   1019,0 86 -
03:45 2,2 0,1   Kalm   1019,0 86 -
03:50 2,2 0,1   Kalm 2,0 1019,0 86 -
03:55 2,2 0,1   Kalm 2,0 1018,6 86 -
04:00 2,2 0,1   Kalm   1018,6 86 -
04:05 2,2 -0,1   Kalm   1018,6 85 -
04:10 2,1 -0,2   Kalm   1018,6 85 -
04:15 1,9 -0,4   Kalm   1018,6 85 -
04:20 1,9 -0,2   Kalm   1018,6 86 -
04:25 1,8 -0,3   Kalm   1018,6 86 -
04:30 1,7 -0,4   Kalm   1018,3 86 -
04:35 1,6 -0,5   Kalm   1018,3 86 -
04:40 1,5 -0,6   Kalm   1018,3 86 -
04:45 1,4 -0,5   Kalm   1018,0 87 -
04:50 1,4 -0,4   Kalm   1018,0 88 -
04:55 1,3 -0,6   Kalm   1018,0 87 -
05:00 1,3 -0,5   Kalm   1018,0 88 -
05:05 1,2 -0,6   Kalm   1018,0 88 -
05:10 1,1 -0,7   Kalm   1018,0 88 -
05:15 1,0 -0,8   Kalm   1018,0 88 -
05:20 0,9 -0,9   Kalm   1018,0 88 -
05:25 0,8 -1,0   Kalm   1018,0 88 -
05:30 0,8 -0,8   Kalm   1017,6 89 -
05:35 0,7 -1,1   Kalm   1017,6 88 -
05:40 0,6 -1,0   Kalm   1017,6 89 -
05:45 0,6 -1,0   Kalm   1017,3 89 -
05:50 0,5 -0,9   Kalm   1017,3 90 -
05:55 0,5 -0,9   Kalm 2,0 1017,6 90 -
06:00 0,4 -1,0   Kalm   1017,6 90 -
06:05 0,4 -1,0   Kalm 2,0 1017,6 90 -
Daily Summary for Thursday Apr 2 2020
Time Temp. ( °C ) Dew pt. ( °C ) Wind ( km/h ) From Gust ( km/h ) Pressure ( hPa ) Humid.( % ) Rainrate ( cm )
High4,3 0,5 1,0 WSW ( 1/1 ) 3,0 1019,6 90 -
Average2,4 0,0 0,0 Kalm #72/73 0,5 1018,8 84 -
Low0,4 -1,1 -   0,0 1017,3 76 -
Daily Tabular details for Thursday Apr 2 2020
Time Temp. ( °C ) Dew pt. ( °C ) Wind ( km/h ) From Gust ( km/h ) Pressure ( hPa ) Humid.( % ) Rainrate ( cm )
00:04 4,3 0,4   Kalm 2,0 1019,6 76 -
00:09 4,2 0,5   Kalm 3,0 1019,6 77 -
00:14 4,2 0,5   Kalm 2,0 1019,6 77 -
00:19 4,1 0,4   Kalm 2,0 1019,6 77 -
00:24 4,0 0,5   Kalm 2,0 1019,6 78 -
00:29 3,9 0,4   Kalm   1019,6 78 -
00:34 3,9 0,4   Kalm   1019,6 78 -
00:39 3,8 0,5   Kalm   1019,6 79 -
00:44 3,7 0,4   Kalm   1019,6 79 -
00:49 3,6 0,3   Kalm   1019,6 79 -
00:54 3,6 0,5   Kalm   1019,6 80 -
00:59 3,6 0,5   Kalm   1019,3 80 -
01:04 3,6 0,5   Kalm   1019,6 80 -
01:09 3,4 0,3   Kalm   1019,6 80 -
01:14 3,3 0,2   Kalm   1019,3 80 -
01:19 3,3 0,4   Kalm 2,0 1019,3 81 -
01:24 3,3 0,4   Kalm   1019,3 81 -
01:29 3,2 0,3   Kalm   1019,3 81 -
01:34 3,2 0,4   Kalm   1019,3 82 -
01:39 3,2 0,4   Kalm   1019,3 82 -
01:44 3,2 0,4   Kalm 2,0 1019,3 82 -
01:49 3,1 0,3   Kalm   1019,3 82 -
01:54 3,0 0,4   Kalm 2,0 1019,0 83 -
01:59 2,9 0,3   Kalm 2,0 1019,3 83 -
02:04 2,9 0,3   Kalm   1019,0 83 -
02:09 2,8 0,2   Kalm   1019,3 83 -
02:14 2,8 0,4   Kalm   1019,0 84 -
02:19 2,8 0,4   Kalm   1019,0 84 -
02:24 2,7 0,3   Kalm 2,0 1019,0 84 -
02:29 2,7 0,3 1,0 WSW 2,0 1019,0 84 -
02:34 2,7 0,3   Kalm 2,0 1019,0 84 -
02:40 2,7 0,3   Kalm 2,0 1019,0 84 -
02:45 2,7 0,3   Kalm   1019,0 84 -
02:50 2,6 0,2   Kalm   1019,0 84 -
02:55 2,6 0,3   Kalm   1019,0 85 -
03:00 2,6 0,3   Kalm   1019,0 85 -
03:05 2,5 0,2   Kalm   1019,0 85 -
03:10 2,4 0,1   Kalm   1019,0 85 -
03:15 2,3 0,0   Kalm   1019,0 85 -
03:20 2,2 0,1   Kalm   1019,0 86 -
03:25 2,2 0,1   Kalm   1019,0 86 -
03:30 2,2 0,1   Kalm   1019,0 86 -
03:35 2,2 0,1   Kalm   1019,0 86 -
03:40 2,1 0,0   Kalm   1019,0 86 -
03:45 2,2 0,1   Kalm   1019,0 86 -
03:50 2,2 0,1   Kalm 2,0 1019,0 86 -
03:55 2,2 0,1   Kalm 2,0 1018,6 86 -
04:00 2,2 0,1   Kalm   1018,6 86 -
04:05 2,2 -0,1   Kalm   1018,6 85 -
04:10 2,1 -0,2   Kalm   1018,6 85 -
04:15 1,9 -0,4   Kalm   1018,6 85 -
04:20 1,9 -0,2   Kalm   1018,6 86 -
04:25 1,8 -0,3   Kalm   1018,6 86 -
04:30 1,7 -0,4   Kalm   1018,3 86 -
04:35 1,6 -0,5   Kalm   1018,3 86 -
04:40 1,5 -0,6   Kalm   1018,3 86 -
04:45 1,4 -0,5   Kalm   1018,0 87 -
04:50 1,4 -0,4   Kalm   1018,0 88 -
04:55 1,3 -0,6   Kalm   1018,0 87 -
05:00 1,3 -0,5   Kalm   1018,0 88 -
05:05 1,2 -0,6   Kalm   1018,0 88 -
05:10 1,1 -0,7   Kalm   1018,0 88 -
05:15 1,0 -0,8   Kalm   1018,0 88 -
05:20 0,9 -0,9   Kalm   1018,0 88 -
05:25 0,8 -1,0   Kalm   1018,0 88 -
05:30 0,8 -0,8   Kalm   1017,6 89 -
05:35 0,7 -1,1   Kalm   1017,6 88 -
05:40 0,6 -1,0   Kalm   1017,6 89 -
05:45 0,6 -1,0   Kalm   1017,3 89 -
05:50 0,5 -0,9   Kalm   1017,3 90 -
05:55 0,5 -0,9   Kalm 2,0 1017,6 90 -
06:00 0,4 -1,0   Kalm   1017,6 90 -
06:05 0,4 -1,0   Kalm 2,0 1017,6 90 -

Download your copy of this data-set  from WeatherUnderground

Our weather-data as stored at Weather Underground. Original script b Jim McMurry. Rewritten for template use Leuven-Template